| time (UTC) | temp F | wind direction | speed MPH | gust MPH | rain 1hr in | rain 24hr in | rain mn in | humidity % | barometer mb |
| 20260505083021 | 61 | 148 | 0.0 | 0.0 | 0.00 | 0.00 | 0.00 | 74 | 1012.4 |
| 20260505081529 | 62 | 149 | 0.0 | 0.0 | 0.00 | 0.00 | 0.00 | 74 | 1012.4 |
| 20260505080020 | 62 | 121 | 0.0 | 1.0 | 0.00 | 0.00 | 0.00 | 73 | 1012.4 |
| 20260505074518 | 62 | 101 | 0.0 | 1.0 | 0.00 | 0.00 | 0.00 | 73 | 1012.4 |
| 20260505073015 | 63 | 111 | 0.0 | 1.0 | 0.00 | 0.00 | 0.00 | 72 | 1012.3 |
| 20260505071531 | 63 | 106 | 0.0 | 1.0 | 0.00 | 0.00 | 0.00 | 72 | 1012.2 |
| 20260505070014 | 63 | 84 | 0.0 | 1.0 | 0.00 | 0.00 | 0.00 | 71 | 1012.3 |
| 20260505064520 | 64 | 103 | 0.0 | 2.0 | 0.00 | 0.00 | 0.00 | 71 | 1012.0 |
| 20260505063015 | 64 | 74 | 0.0 | 2.0 | 0.00 | 0.00 | 0.00 | 71 | 1012.0 |
| 20260505061512 | 64 | 124 | 0.0 | 2.0 | 0.00 | 0.00 | 0.00 | 71 | 1012.2 |
| 20260505060011 | 64 | 90 | 0.0 | 2.0 | 0.00 | 0.00 | 0.00 | 71 | 1012.2 |
| 20260505054511 | 64 | 83 | 0.0 | 2.0 | 0.00 | 0.00 | 0.00 | 71 | 1012.1 |
| 20260505053012 | 64 | 142 | 0.0 | 2.0 | 0.00 | 0.00 | 0.00 | 71 | 1012.1 |
| 20260505051512 | 65 | 74 | 0.0 | 3.0 | 0.00 | 0.00 | 0.00 | 70 | 1012.0 |
| 20260505041507 | 64 | 135 | 0.0 | 1.0 | 0.00 | 0.00 | 0.00 | 71 | 1012.0 |
| 20260505040005 | 63 | 112 | 0.0 | 2.0 | 0.00 | 0.00 | 0.00 | 73 | 1012.0 |
| 20260505034501 | 62 | 93 | 0.0 | 1.0 | 0.00 | 0.00 | 0.00 | 76 | 1012.0 |
| 20260505033102 | 61 | 98 | 0.0 | 1.0 | 0.00 | 0.00 | 0.00 | 78 | 1012.0 |
| 20260505031601 | 61 | 85 | 0.0 | 0.0 | 0.00 | 0.00 | 0.00 | 78 | 1011.9 |
| 20260505030104 | 60 | 84 | 0.0 | 2.0 | 0.00 | 0.00 | 0.00 | 79 | 1012.0 |
| 20260505024558 | 60 | 93 | 0.0 | 1.0 | 0.00 | 0.00 | 0.00 | 78 | 1011.9 |
| 20260505023108 | 60 | 82 | 0.0 | 1.0 | 0.00 | 0.00 | 0.00 | 77 | 1012.4 |
| 20260505021601 | 61 | 82 | 0.0 | 1.0 | 0.00 | 0.00 | 0.00 | 75 | 1011.8 |
| 20260505020059 | 61 | 82 | 0.0 | 1.0 | 0.00 | 0.00 | 0.00 | 74 | 1011.9 |
| 20260505014558 | 62 | 82 | 0.0 | 1.0 | 0.00 | 0.00 | 0.00 | 72 | 1012.0 |
| 20260505013056 | 62 | 80 | 0.0 | 1.0 | 0.00 | 0.00 | 0.00 | 70 | 1011.9 |
| 20260505011557 | 63 | 80 | 0.0 | 1.0 | 0.00 | 0.00 | 0.00 | 69 | 1011.8 |
| 20260505004555 | 64 | 79 | 0.0 | 1.0 | 0.00 | 0.00 | 0.00 | 63 | 1011.5 |
| 20260505003059 | 65 | 79 | 0.0 | 1.0 | 0.00 | 0.00 | 0.00 | 61 | 1011.5 |
| 20260505001554 | 66 | 79 | 0.0 | 1.0 | 0.00 | 0.00 | 0.00 | 59 | 1011.4 |
| 20260505000103 | 67 | 84 | 0.0 | 1.0 | 0.00 | 0.00 | 0.00 | 56 | 1011.4 |
| 20260504234553 | 68 | 71 | 0.0 | 2.0 | 0.00 | 0.00 | 0.00 | 54 | 1011.2 |
| 20260504233054 | 69 | 73 | 0.0 | 2.0 | 0.00 | 0.00 | 0.00 | 53 | 1011.1 |
| 20260504231552 | 70 | 78 | 0.0 | 1.0 | 0.00 | 0.00 | 0.00 | 48 | 1011.0 |
| 20260504230050 | 71 | 75 | 0.0 | 2.0 | 0.00 | 0.00 | 0.00 | 47 | 1011.1 |
| 20260504224550 | 71 | 88 | 0.0 | 3.0 | 0.00 | 0.00 | 0.00 | 43 | 1011.2 |
| 20260504223048 | 72 | 57 | 0.0 | 3.0 | 0.00 | 0.00 | 0.00 | 40 | 1011.0 |
| 20260504221547 | 72 | 118 | 1.0 | 2.0 | 0.00 | 0.00 | 0.00 | 36 | 1011.1 |
| 20260504220108 | 73 | 63 | 1.0 | 4.0 | 0.00 | 0.00 | 0.00 | 35 | 1011.2 |
| 20260504214552 | 73 | 97 | 0.0 | 2.0 | 0.00 | 0.00 | 0.00 | 35 | 1011.2 |
| 20260504213051 | 73 | 116 | 0.0 | 4.0 | 0.00 | 0.00 | 0.00 | 34 | 1011.3 |
| 20260504211545 | 73 | 157 | 0.0 | 2.0 | 0.00 | 0.00 | 0.00 | 35 | 1011.3 |
| 20260504210044 | 73 | 82 | 0.0 | 3.0 | 0.00 | 0.00 | 0.00 | 35 | 1011.2 |
| 20260504204544 | 74 | 95 | 0.0 | 3.0 | 0.00 | 0.00 | 0.00 | 36 | 1011.3 |
| 20260504203043 | 74 | 164 | 0.0 | 3.0 | 0.00 | 0.00 | 0.00 | 35 | 1011.2 |
| 20260504201541 | 75 | 188 | 0.0 | 2.0 | 0.00 | 0.00 | 0.00 | 35 | 1011.5 |
| 20260504200048 | 74 | 119 | 0.0 | 3.0 | 0.00 | 0.00 | 0.00 | 34 | 1011.7 |
| 20260504194542 | 76 | 114 | 0.0 | 2.0 | 0.00 | 0.00 | 0.00 | 33 | 1011.9 |
| 20260504193035 | 76 | 136 | 0.0 | 4.0 | 0.00 | 0.00 | 0.00 | 33 | 1012.1 |
| 20260504191549 | 75 | 122 | 2.0 | 6.0 | 0.00 | 0.00 | 0.00 | 33 | 1012.3 |
| 20260504190033 | 77 | 111 | 0.0 | 2.0 | 0.00 | 0.00 | 0.00 | 33 | 1012.5 |
| 20260504184538 | 75 | 144 | 0.0 | 4.0 | 0.00 | 0.00 | 0.00 | 32 | 1012.6 |
| 20260504183040 | 76 | 119 | 0.0 | 1.0 | 0.00 | 0.00 | 0.00 | 31 | 1012.6 |
| 20260504181529 | 76 | 134 | 0.0 | 2.0 | 0.00 | 0.00 | 0.00 | 30 | 1012.9 |
| 20260504180029 | 76 | 114 | 0.0 | 3.0 | 0.00 | 0.00 | 0.00 | 31 | 1013.0 |
| 20260504174527 | 76 | 30 | 1.0 | 2.0 | 0.00 | 0.00 | 0.00 | 30 | 1013.0 |
| 20260504173027 | 76 | 115 | 0.0 | 3.0 | 0.00 | 0.00 | 0.00 | 32 | 1013.1 |
| 20260504171522 | 75 | 112 | 0.0 | 2.0 | 0.00 | 0.00 | 0.00 | 32 | 1013.3 |
| 20260504100106 | 49 | 123 | 0.0 | 0.0 | 0.00 | 0.00 | 0.00 | 86 | 1015.4 |